This is the latest recevied weather packets stored in our database for station/object SP2WPY-13. If no packets are shown the sender has not sent any weather packets the latest 10 day(s).
| Time | Temp. | Humidity | Pressure | Rain* | Wind** | Luminosity | Snow |
|---|---|---|---|---|---|---|---|
| 1777761085 | 16.67° C | 42% | 1018.1 hPa | - | - | - | - |
| 1777760766 | 16.67° C | 42% | 1018 hPa | - | - | - | - |
| 1777760492 | 16.67° C | 41% | 1018.1 hPa | - | - | - | - |
| 1777760172 | 16.67° C | 41% | 1018.1 hPa | - | - | - | - |
| 1777759898 | 16.67° C | 41% | 1018.1 hPa | - | - | - | - |
| 1777759578 | 16.67° C | 40% | 1018.2 hPa | - | - | - | - |
| 1777759304 | 16.67° C | 40% | 1018.1 hPa | - | - | - | - |
| 1777758984 | 16.67° C | 40% | 1018.2 hPa | - | - | - | - |
| 1777758665 | 16.67° C | 39% | 1018.2 hPa | - | - | - | - |
| 1777758390 | 16.67° C | 38% | 1018.2 hPa | - | - | - | - |
| 1777758071 | 16.67° C | 38% | 1018.3 hPa | - | - | - | - |
| 1777757797 | 16.67° C | 37% | 1018.2 hPa | - | - | - | - |
| 1777757477 | 16.67° C | 37% | 1018.3 hPa | - | - | - | - |
| 1777757203 | 17.22° C | 37% | 1018.2 hPa | - | - | - | - |
| 1777756883 | 17.22° C | 37% | 1018.3 hPa | - | - | - | - |
| 1777756565 | 17.22° C | 36% | 1018.2 hPa | - | - | - | - |
| 1777756289 | 16.67° C | 36% | 1018.3 hPa | - | - | - | - |
| 1777755970 | 16.67° C | 36% | 1018.3 hPa | - | - | - | - |
| 1777755696 | 16.67° C | 36% | 1018.3 hPa | - | - | - | - |
| 1777755377 | 16.11° C | 36% | 1018.4 hPa | - | - | - | - |
| 1777755103 | 16.11° C | 36% | 1018.4 hPa | - | - | - | - |
| 1777754783 | 15.56° C | 36% | 1018.6 hPa | - | - | - | - |
| 1777754464 | 15.56° C | 36% | 1018.5 hPa | - | - | - | - |
| 1777754190 | 15.56° C | 36% | 1018.6 hPa | - | - | - | - |
| 1777753869 | 15° C | 36% | 1018.6 hPa | - | - | - | - |
* Rain since midnight (hover to see other rain measurements)
** Current wind speed in m/s (hover to see current wind gust speed)